When you browse on this site, cookies collect data to enhance your experience and personalize the content and advertising you see.
Visit our Privacy Policy to learn more. By continuing to use the site, you agree to this use of cookies and data.
  • In United Kingdom
  • List of Countries
  • For 7 days
  • Water Temperature
  • Satellite Maps
  • Weather Map
  • Weather Widgets
  • user-avatar
    Login

    Hourly Weather Tacna

    Today, 21 July, Sunday

    Time Temperature Precipitation Wind Pressure Humidity
    00:00 +16°C° 0 mm 0 mps 703 mmHg 75%
    01:00 +18°C° 0 mm 1 mps 703 mmHg 75%
    02:00 +15°C° 0 mm 0 mps 703 mmHg 76%
    03:00 +15°C° 0 mm 0 mps 703 mmHg 78%
    04:00 +14°C° 0 mm 0 mps 702 mmHg 79%
    05:00 +15°C° 0 mm 0 mps 703 mmHg 77%
    06:00 +15°C° 0 mm 0 mps 703 mmHg 75%
    07:00 +16°C° 0 mm 0 mps 704 mmHg 73%
    08:00 +19°C° 0 mm 1 mps 704 mmHg 68%
    09:00 +19°C° 0 mm 2 mps 704 mmHg 63%
    10:00 +21°C° 0 mm 2 mps 705 mmHg 58%
    11:00 +21°C° 0 mm 2 mps 704 mmHg 57%
    12:00 +21°C° 0 mm 3 mps 703 mmHg 56%
    13:00 +22°C° 0 mm 3 mps 703 mmHg 56%
    14:00 +21°C° 0 mm 3 mps 702 mmHg 59%
    15:00 +21°C° 0 mm 3 mps 702 mmHg 62%
    16:00 +20°C° 0 mm 2 mps 702 mmHg 64%
    17:00 +19°C° 0 mm 2 mps 702 mmHg 69%
    18:00 +19°C° 0 mm 1 mps 703 mmHg 74%
    19:00 +18°C° 0 mm 1 mps 703 mmHg 78%
    20:00 +16°C° 0 mm 1 mps 704 mmHg 78%
    21:00 +16°C° 0 mm 1 mps 704 mmHg 79%
    22:00 +16°C° 0 mm 1 mps 704 mmHg 79%
    23:00 +16°C° 0 mm 1 mps 704 mmHg 79%

    Tomorrow, 22 July, Monday

    Time Temperature Precipitation Wind Pressure Humidity
    00:00 +16°C° 0 mm 1 mps 704 mmHg 78%
    01:00 +15°C° 0 mm 0 mps 704 mmHg 78%
    02:00 +16°C° 0 mm 1 mps 704 mmHg 79%
    03:00 +15°C° 0 mm 1 mps 703 mmHg 80%
    04:00 +15°C° 0 mm 1 mps 703 mmHg 81%
    05:00 +15°C° 0 mm 1 mps 703 mmHg 79%
    06:00 +16°C° 0 mm 1 mps 704 mmHg 78%
    07:00 +16°C° 0 mm 1 mps 704 mmHg 76%
    08:00 +18°C° 0 mm 1 mps 704 mmHg 72%
    09:00 +18°C° 0 mm 2 mps 704 mmHg 67%
    10:00 +19°C° 0 mm 2 mps 704 mmHg 63%
    11:00 +19°C° 0 mm 3 mps 704 mmHg 62%
    12:00 +20°C° 0 mm 3 mps 703 mmHg 60%
    13:00 +20°C° 0 mm 4 mps 703 mmHg 59%
    14:00 +19°C° 0 mm 3 mps 702 mmHg 64%
    15:00 +18°C° 0 mm 3 mps 702 mmHg 69%
    16:00 +17°C° 0 mm 3 mps 702 mmHg 74%
    17:00 +16°C° 0 mm 2 mps 703 mmHg 76%
    18:00 +16°C° 0 mm 2 mps 703 mmHg 78%
    19:00 +15°C° 0 mm 1 mps 704 mmHg 80%
    20:00 +15°C° 0 mm 1 mps 704 mmHg 80%
    21:00 +15°C° 0 mm 1 mps 705 mmHg 80%
    22:00 +15°C° 0 mm 1 mps 705 mmHg 80%
    23:00 +15°C° 0 mm 1 mps 705 mmHg 80%

    Day after tomorrow, 23 July, Tuesday

    Time Temperature Precipitation Wind Pressure Humidity
    00:00 +15°C° 0 mm 1 mps 704 mmHg 80%
    01:00 +14°C° 0 mm 1 mps 704 mmHg 81%
    02:00 +15°C° 0 mm 1 mps 704 mmHg 79%
    03:00 +15°C° 0 mm 1 mps 704 mmHg 78%
    04:00 +15°C° 0 mm 1 mps 704 mmHg 77%
    05:00 +15°C° 0 mm 1 mps 704 mmHg 77%
    06:00 +15°C° 0 mm 1 mps 704 mmHg 77%
    07:00 +15°C° 0 mm 1 mps 705 mmHg 77%
    08:00 +15°C° 0 mm 1 mps 705 mmHg 75%
    09:00 +16°C° 0 mm 2 mps 704 mmHg 72%
    10:00 +17°C° 0 mm 2 mps 704 mmHg 69%
    11:00 +17°C° 0 mm 3 mps 704 mmHg 69%
    12:00 +17°C° 0 mm 3 mps 703 mmHg 68%
    13:00 +17°C° 0 mm 3 mps 703 mmHg 67%
    14:00 +17°C° 0 mm 3 mps 702 mmHg 71%
    15:00 +16°C° 0 mm 3 mps 702 mmHg 75%
    16:00 +15°C° 0 mm 2 mps 702 mmHg 79%
    17:00 +15°C° 0 mm 2 mps 703 mmHg 79%
    18:00 +14°C° 0 mm 2 mps 703 mmHg 79%
    19:00 +14°C° 0 mm 1 mps 704 mmHg 79%
    20:00 +14°C° 0 mm 1 mps 704 mmHg 79%
    21:00 +14°C° 0 mm 1 mps 704 mmHg 79%
    22:00 +14°C° 0 mm 1 mps 705 mmHg 79%
    23:00 +14°C° 0 mm 1 mps 704 mmHg 80%

    24 July, Wednesday

    Time Temperature Precipitation Wind Pressure Humidity
    00:00 +14°C° 0 mm 1 mps 704 mmHg 80%
    01:00 +13°C° 0 mm 1 mps 704 mmHg 81%
    02:00 +13°C° 0 mm 1 mps 704 mmHg 81%
    03:00 +13°C° 0 mm 1 mps 704 mmHg 82%
    04:00 +13°C° 0 mm 1 mps 704 mmHg 82%
    05:00 +13°C° 0 mm 1 mps 704 mmHg 82%
    06:00 +14°C° 0 mm 1 mps 705 mmHg 82%
    07:00 +14°C° 0 mm 1 mps 705 mmHg 81%
    08:00 +15°C° 0 mm 1 mps 705 mmHg 75%
    09:00 +16°C° 0 mm 1 mps 705 mmHg 68%
    10:00 +17°C° 0 mm 2 mps 705 mmHg 62%
    11:00 +18°C° 0 mm 2 mps 704 mmHg 60%
    12:00 +19°C° 0 mm 3 mps 704 mmHg 57%
    13:00 +19°C° 0 mm 4 mps 704 mmHg 55%
    14:00 +19°C° 0 mm 3 mps 704 mmHg 59%
    15:00 +18°C° 0 mm 3 mps 704 mmHg 63%
    16:00 +17°C° 0 mm 3 mps 704 mmHg 67%
    17:00 +16°C° 0 mm 2 mps 704 mmHg 70%
    18:00 +15°C° 0 mm 2 mps 705 mmHg 74%
    19:00 +14°C° 0 mm 1 mps 705 mmHg 77%
    20:00 +14°C° 0 mm 1 mps 706 mmHg 76%
    21:00 +14°C° 0 mm 1 mps 706 mmHg 76%
    22:00 +14°C° 0 mm 1 mps 706 mmHg 75%
    23:00 +14°C° 0 mm 1 mps 706 mmHg 75%

    25 July, Thursday

    Time Temperature Precipitation Wind Pressure Humidity
    00:00 +14°C° 0 mm 1 mps 706 mmHg 74%
    01:00 +13°C° 0 mm 1 mps 706 mmHg 73%
    02:00 +13°C° 0 mm 1 mps 705 mmHg 73%
    03:00 +13°C° 0 mm 1 mps 705 mmHg 73%
    04:00 +13°C° 0 mm 1 mps 704 mmHg 74%
    05:00 +13°C° 0 mm 1 mps 705 mmHg 70%
    06:00 +14°C° 0 mm 1 mps 705 mmHg 67%
    07:00 +15°C° 0 mm 1 mps 706 mmHg 63%
    08:00 +16°C° 0 mm 1 mps 705 mmHg 57%
    09:00 +18°C° 0 mm 2 mps 705 mmHg 52%
    10:00 +20°C° 0 mm 2 mps 705 mmHg 46%
    11:00 +20°C° 0 mm 3 mps 705 mmHg 45%
    12:00 +21°C° 0 mm 3 mps 704 mmHg 45%
    13:00 +21°C° 0 mm 4 mps 704 mmHg 44%
    14:00 +20°C° 0 mm 3 mps 704 mmHg 49%
    15:00 +19°C° 0 mm 3 mps 704 mmHg 54%
    16:00 +18°C° 0 mm 3 mps 703 mmHg 60%
    17:00 +17°C° 0 mm 2 mps 704 mmHg 63%
    18:00 +16°C° 0 mm 1 mps 704 mmHg 67%
    19:00 +15°C° 0 mm 1 mps 705 mmHg 71%
    20:00 +14°C° 0 mm 1 mps 705 mmHg 70%
    21:00 +14°C° 0 mm 1 mps 705 mmHg 69%
    22:00 +14°C° 0 mm 1 mps 705 mmHg 68%
    23:00 +14°C° 0 mm 1 mps 705 mmHg 68%

    26 July, Friday

    Time Temperature Precipitation Wind Pressure Humidity
    00:00 +14°C° 0 mm 1 mps 704 mmHg 68%
    01:00 +13°C° 0 mm 1 mps 704 mmHg 68%
    02:00 +12°C° 0 mm 0 mps 704 mmHg 67%
    03:00 +12°C° 0 mm 0 mps 703 mmHg 66%
    04:00 +12°C° 0 mm 0 mps 703 mmHg 65%
    05:00 +12°C° 0 mm 0 mps 703 mmHg 64%
    06:00 +14°C° 0 mm 1 mps 704 mmHg 63%
    07:00 +14°C° 0 mm 1 mps 704 mmHg 62%
    08:00 +16°C° 0 mm 1 mps 704 mmHg 56%
    09:00 +19°C° 0 mm 1 mps 705 mmHg 50%
    10:00 +19°C° 0 mm 2 mps 705 mmHg 45%
    11:00 +20°C° 0 mm 2 mps 704 mmHg 43%
    12:00 +21°C° 0 mm 3 mps 704 mmHg 42%
    13:00 +22°C° 0 mm 3 mps 703 mmHg 41%
    14:00 +21°C° 0 mm 3 mps 703 mmHg 45%
    15:00 +20°C° 0 mm 3 mps 702 mmHg 49%
    16:00 +19°C° 0 mm 3 mps 702 mmHg 53%
    17:00 +18°C° 0 mm 2 mps 703 mmHg 59%
    18:00 +16°C° 0 mm 1 mps 703 mmHg 65%
    19:00 +13°C° 0 mm 0 mps 703 mmHg 70%
    20:00 +13°C° 0 mm 0 mps 703 mmHg 71%
    21:00 +13°C° 0 mm 0 mps 704 mmHg 71%
    22:00 +12°C° 0 mm 0 mps 704 mmHg 71%
    23:00 +12°C° 0 mm 0 mps 703 mmHg 72%
    Show more